View Data : List Evapotranspiration (ETo ) Reports


 
Search Evapotranspiration Reports
Station Fields:
Location:
Date Range:
Start Date:   End Date:
Searched: Report date on 5/26/2017.
Showing 1 - 50 of 103 Records. <Back  Page   Next>
DateTimeStation NumberStation NameGaugeReadingRefill LevelEvap AmtView
5/26/2017  12:00 AM  MN-AA-5  East Bethel 3.1 NE 2.52  0.07   
5/26/2017  5:00 AM  NY-CQ-22  Fredonia 0.8 WNW 3.92  0.01   
5/26/2017  5:09 AM  MO-CP-7  Boonville 0.5 ESE 1.97  0.16   
5/26/2017  5:15 AM  OH-PB-1  Eaton 1.0 N 4.90  0.03   
5/26/2017  5:20 AM  NM-SF-70  Santa Fe 10.5 S 4.52  0.27   
5/26/2017  5:30 AM  AL-MD-25  Huntsville 4.4 ENE 7.81  0.12   
5/26/2017  5:30 AM  IN-TN-1  Atlanta 4.4 W 4.20  0.05   
5/26/2017  5:30 AM  TX-KN-4  Boerne 5.1 NNW 3.72  0.20   
5/26/2017  5:30 AM  WY-PK-7  Cody 2.4 WSW 0.42  0.00   
5/26/2017  6:00 AM  CA-SJ-5  Lodi 1.0 NNW 10.41 0.01 0.56   
5/26/2017  6:00 AM  IN-PT-12  Valparaiso 4.3 SW 2.67  0.04   
5/26/2017  6:00 AM  MD-MG-54  Germantown 4.6 NNE 4.53  0.03   
5/26/2017  6:00 AM  NH-CH-21  Keene 2.0 SE 1.54  0.97   
5/26/2017  6:00 AM  NH-CS-7  Lancaster 0.5 N 0.20  0.01   
5/26/2017  6:00 AM  PA-CN-13  Boalsburg 0.4 E 5.00  0.05   
5/26/2017  6:00 AM  PA-MT-16  North Wales 1.3 WSW 3.12  0.00   
5/26/2017  6:00 AM  TN-MA-3  Jasper 1.7 N 8.96  0.18   
5/26/2017  6:00 AM  VA-BD-9  Bedford 3.2 W 2.60  0.00   
5/26/2017  6:00 AM  VA-FR-26  Ferrum 2.7 SW 1.98  0.13   
5/26/2017  6:15 AM  WA-SJ-28  Lopez Island 3.9 NNE 3.23  0.08   
5/26/2017  6:30 AM  IL-WN-2  Roscoe 1.6 ESE 0.49  0.03   
5/26/2017  6:30 AM  IA-LN-7  Central City 6.7 W 3.83  0.13   
5/26/2017  6:30 AM  KY-ME-8  Harrodsburg 10.8 NW 4.55  0.00   
5/26/2017  6:30 AM  OH-DR-1  Bradford 2.3 NW 4.33  0.06   
5/26/2017  6:30 AM  TX-ER-4  Stephenville 2.6 NNW 6.90  0.20   
5/26/2017  6:30 AM  WY-SH-22  Ranchester 1.3 ESE 1.55  0.20   
5/26/2017  6:40 AM  NJ-MS-21  Randolph Twp 0.8 W 2.72  0.00   
5/26/2017  6:58 AM  WI-MC-4  Two Rivers 1.4 N 1.42  0.03   
5/26/2017  7:00 AM  AZ-MR-326  Phoenix 6.3 SSW 8.94  0.28   
5/26/2017  7:00 AM  AZ-PN-50  Saddlebrooke 1.5 SW 10.56 0.10 0.26   
5/26/2017  7:00 AM  CA-HM-5  Mckinleyville 7.3 ESE 0.03  0.03   
5/26/2017  7:00 AM  CA-SD-12  Poway 3.2NE 9.50  0.10   
5/26/2017  7:00 AM  CA-SD-132  Descanso 3.7N 8.50  0.10   
5/26/2017  7:00 AM  CA-SN-100  Glen Ellen 1.9 NNW 4.98  0.04   
5/26/2017  7:00 AM  CA-TH-11  Red Bluff 5.1 NNW 7.11  0.16   
5/26/2017  7:00 AM  CO-LR-36  Timnath 4.1 NNE 4.21  0.08   
5/26/2017  7:00 AM  CO-LR-284  FCL 3.0 W 1.29  0.07   
5/26/2017  7:00 AM  CO-LR-623  Fort Collins 6.1 SW 3.01  0.10   
5/26/2017  7:00 AM  CO-LG-6  Sterling 3.7 NNE 1.85  0.05   
5/26/2017  7:00 AM  CO-ME-79  Grand Junction 3.9 WSW 4.30  0.20   
5/26/2017  7:00 AM  IL-CP-1  Homer 2.0 N 3.61  0.03   
5/26/2017  7:00 AM  IL-GY-1  Carbon Hill 3.1 N 3.71  0.08   
5/26/2017  7:00 AM  IL-WF-14  El Paso 5.2 NNW 2.97  0.06   
5/26/2017  7:00 AM  IN-HR-5  Milltown 5.7 SSE 5.80  0.01   
5/26/2017  7:00 AM  IN-MR-13  Speedway 6.2 SSW 4.59  0.01   
5/26/2017  7:00 AM  IN-NB-23  Columbia City 8.4 N 1.64 1.62 0.00   
5/26/2017  7:00 AM  IN-OW-9  Spencer 7.0 S 5.43  0.03   
5/26/2017  7:00 AM  IN-PT-133  Valparaiso 2.2 WNW 4.05  0.03   
5/26/2017  7:00 AM  IA-TY-2  New Market 4.7 N 3.63  0.14   
5/26/2017  7:00 AM  KS-MP-42  McPherson 2.9 E 4.68  0.16